Location: Franzen
(48.6167°N, 15.3833°E)
Time: 11:00:43
(UTC+00:00)

Cosmos 1745 Rocket - Pass Details

Date: 22 April 2021
Orbit: 952 x 998 km, 83.0° (Epoch: 16 May)

Event Time Altitude Azimuth Distance (km) Brightness Sun altitude
Rises 21:43:32 0° 347° (NNW) 3,715 8.3 -26.8°
Reaches altitude 10° 21:46:07 10° 344° (NNW) 2,756 7.4 -26.9°
Maximum altitude 21:52:15 56° 268° (W) 1,150 4.3 -27.2°
Enters shadow 21:53:26 49° 229° (SW) 1,243 4.3 -27.3°
